DM4SB-13 Weather Reports


time (UTC)temp
C
wind
direction
speed
KPH
gust
KPH
rain 1hr
cm
rain 24hr
cm
rain mn
cm
humidity
%
barometer
mb
20260505070017 15 0.0 0.0 0.00 0.00 0.00 68 1009.8
20260505065017 15 0.0 0.0 0.00 0.00 0.00 68 1009.8
20260505064017 15 0.0 0.0 0.00 0.00 0.00 68 1010.0
20260505063018 14 0.0 0.0 0.00 0.00 0.00 68 1010.3
20260505062017 14 0.0 0.0 0.00 0.00 0.00 68 1010.3
20260505061018 14 0.0 0.0 0.00 0.00 0.00 68 1010.6
20260505060017 13 0.0 0.0 0.00 0.00 0.00 68 1010.6
20260505055017 13 0.0 0.0 0.00 0.00 0.00 68 1010.6
20260505054017 13 0.0 0.0 0.00 0.00 0.00 68 1010.9
20260505053018 13 0.0 0.0 0.00 0.00 0.00 68 1010.8
20260505052017 13 0.0 0.0 0.00 0.00 0.00 68 1010.6
20260505051018 13 0.0 0.0 0.00 0.00 0.00 68 1010.8
20260505041017 13 0.0 0.0 0.00 0.00 0.00 67 1010.8
20260505040017 13 0.0 0.0 0.00 0.00 0.00 67 1010.8
20260505035017 13 0.0 0.0 0.00 0.00 0.00 67 1010.9
20260505034018 14 0.0 0.0 0.00 0.00 0.00 67 1011.1
20260505033018 14 0.0 0.0 0.00 0.00 0.00 66 1011.0
20260505032017 14 0.0 0.0 0.00 0.00 0.00 66 1011.1
20260505031017 14 0.0 0.0 0.00 0.00 0.00 66 1011.3
20260505030017 14 0.0 0.0 0.00 0.00 0.00 66 1011.4
20260505025017 15 0.0 0.0 0.00 0.00 0.00 66 1011.4
20260505024018 15 0.0 0.0 0.00 0.00 0.00 66 1011.4
20260505023018 15 0.0 0.0 0.00 0.00 0.00 66 1011.5
20260505022018 15 0.0 0.0 0.00 0.00 0.00 65 1011.6
20260505021017 15 0.0 0.0 0.00 0.00 0.00 65 1011.7
20260505020018 15 0.0 0.0 0.00 0.00 0.00 65 1012.1
20260505014018 15 0.0 0.0 0.00 0.00 0.00 65 1012.0
20260505013017 15 0.0 0.0 0.00 0.00 0.00 64 1012.2
20260505012017 15 0.0 0.0 0.00 0.00 0.00 64 1012.3
20260505011018 15 0.0 0.0 0.00 0.00 0.00 64 1012.2
20260505010018 16 0.0 0.0 0.00 0.00 0.00 64 1012.2
20260505005017 16 0.0 0.0 0.00 0.00 0.00 63 1012.3
20260505004017 16 0.0 0.0 0.00 0.00 0.00 63 1012.1
20260505003017 16 0.0 0.0 0.00 0.00 0.00 63 1012.1
20260505002017 16 0.0 0.0 0.00 0.00 0.00 63 1012.2
20260505001018 16 0.0 0.0 0.00 0.00 0.00 63 1012.2
20260505000018 16 0.0 0.0 0.00 0.00 0.00 62 1012.0
20260504235017 16 0.0 0.0 0.00 0.00 0.00 62 1011.9
20260504234018 16 0.0 0.0 0.00 0.00 0.00 61 1011.9
20260504233018 17 0.0 0.0 0.00 0.00 0.00 61 1012.0
20260504232017 17 0.0 0.0 0.00 0.00 0.00 61 1012.1
20260504231017 17 0.0 0.0 0.00 0.00 0.00 60 1012.1
20260504230017 17 0.0 0.0 0.00 0.00 0.00 60 1012.3
20260504225018 17 0.0 0.0 0.00 0.00 0.00 59 1012.4
20260504224017 17 0.0 0.0 0.00 0.00 0.00 58 1012.2
20260504223017 17 0.0 0.0 0.00 0.00 0.00 57 1012.2
20260504222017 17 0.0 0.0 0.00 0.00 0.00 57 1012.2
20260504221018 17 0.0 0.0 0.00 0.00 0.00 57 1012.6
20260504220017 18 0.0 0.0 0.00 0.00 0.00 57 1012.7
20260504215018 18 0.0 0.0 0.00 0.00 0.00 57 1012.7
20260504214017 18 0.0 0.0 0.00 0.00 0.00 56 1012.9
20260504213018 18 0.0 0.0 0.00 0.00 0.00 56 1013.1
20260504212017 18 0.0 0.0 0.00 0.00 0.00 56 1012.9
20260504211018 18 0.0 0.0 0.00 0.00 0.00 56 1013.2
20260504210017 18 0.0 0.0 0.00 0.00 0.00 56 1013.5
20260504205017 18 0.0 0.0 0.00 0.00 0.00 56 1013.6
20260504204018 18 0.0 0.0 0.00 0.00 0.00 55 1013.5
20260504203017 19 0.0 0.0 0.00 0.00 0.00 53 1013.3
20260504202018 19 0.0 0.0 0.00 0.00 0.00 51 1013.4
20260504201017 20 0.0 0.0 0.00 0.00 0.00 51 1013.0
20260504200018 20 0.0 0.0 0.00 0.00 0.00 51 1012.7
20260504195018 20 0.0 0.0 0.00 0.00 0.00 50 1012.4
20260504194017 20 0.0 0.0 0.00 0.00 0.00 50 1012.2
20260504193017 20 0.0 0.0 0.00 0.00 0.00 50 1012.1
20260504192018 20 0.0 0.0 0.00 0.00 0.00 50 1012.1
20260504191018 20 0.0 0.0 0.00 0.00 0.00 50 1011.9
20260504190018 20 0.0 0.0 0.00 0.00 0.00 49 1011.6
20260504185018 20 0.0 0.0 0.00 0.00 0.00 49 1011.7
20260504184017 20 0.0 0.0 0.00 0.00 0.00 48 1011.5
20260504183017 20 0.0 0.0 0.00 0.00 0.00 48 1011.5
20260504182018 20 0.0 0.0 0.00 0.00 0.00 48 1011.5
20260504181018 21 0.0 0.0 0.00 0.00 0.00 48 1011.4
20260504180017 21 0.0 0.0 0.00 0.00 0.00 49 1011.2
20260504175017 21 0.0 0.0 0.00 0.00 0.00 48 1011.2
20260504174018 21 0.0 0.0 0.00 0.00 0.00 50 1011.0
20260504173017 21 0.0 0.0 0.00 0.00 0.00 52 1010.9
20260504172017 21 0.0 0.0 0.00 0.00 0.00 56 1010.8
20260504171017 21 0.0 0.0 0.00 0.00 0.00 54 1010.8
20260504151018 24 0.0 0.0 0.00 0.00 0.00 37 1011.2
20260504141017 26 0.0 0.0 0.00 0.00 0.00 32 1011.3
20260504081018 16 0.0 0.0 0.00 0.00 0.00 52 1015.4